Theta_e
333 336 337 339 346 347 346 352 348 342 342 347 348 354 354 353 349 348 348 348 347 348 347 347 347 348 348 349 347 349 348 353 353 356 355 353 354 352 354 355 356 358 359 358
331 334 335 336 345 347 347 345 345 343 342 344 351 354 354 353 353 350 348 349 349 348 348 349 348 348 349 351 350 350 350 351 352 353 354 351 355 357 350 346 358 360 359 359
329 333 334 335 337 341 341 341 344 346 341 340 340 350 357 359 352 353 350 348 349 349 349 349 349 348 349 352 353 352 353 353 354 355 353 353 355 355 352 349 355 358 360 359
328 330 333 332 336 338 341 340 340 339 340 339 341 351 350 353 354 353 352 350 349 349 349 349 349 349 348 352 354 355 354 357 355 355 357 354 351 352 349 351 354 358 359 359
327 328 329 331 333 335 339 339 341 340 340 338 338 342 351 346 352 349 352 351 350 349 349 348 348 349 348 350 353 356 356 357 357 357 356 355 357 356 352 351 356 358 359 360
327 329 329 329 331 333 335 338 339 339 338 338 337 341 355 356 355 348 348 350 351 350 349 348 347 349 348 349 351 355 357 358 357 359 354 359 358 354 356 352 355 352 358 356
327 327 328 328 328 330 332 335 338 340 339 339 337 349 353 348 344 344 350 351 351 350 350 349 349 349 348 350 350 355 359 361 359 362 361 355 360 359 357 359 354 351 357 355
326 326 327 328 327 327 329 333 336 340 336 335 340 354 350 345 345 346 346 349 351 350 350 350 350 350 349 348 348 352 362 364 363 361 362 360 360 362 359 357 354 355 352 358
326 327 328 328 328 327 327 330 332 331 331 331 340 340 340 344 343 342 340 347 349 350 350 348 348 348 349 348 349 353 361 363 363 363 363 363 363 362 360 357 353 352 355 355
327 327 329 328 328 328 326 329 328 328 332 335 340 343 347 351 345 341 342 344 346 347 349 349 350 349 348 347 349 350 359 362 364 362 364 364 365 363 360 360 356 356 356 352
327 327 328 328 327 327 327 326 328 330 329 332 333 336 336 339 337 338 343 344 344 345 345 347 349 350 350 349 349 351 358 361 364 363 362 362 364 365 363 360 359 355 356 357
327 326 327 328 329 329 328 328 328 330 331 331 332 334 334 335 335 337 343 343 345 345 346 347 348 349 350 351 352 354 355 357 362 362 360 361 361 361 362 362 361 359 359 360
329 326 326 328 329 329 327 328 329 328 330 333 331 333 334 335 338 338 344 343 350 348 348 346 348 353 353 354 355 352 357 357 360 360 359 359 360 360 360 361 357 359 359 359
328 327 326 328 329 329 328 327 328 329 329 329 330 333 335 336 341 344 349 349 350 353 351 348 349 354 355 361 359 359 358 358 360 360 352 349 350 351 355 353 355 360 358 359
327 327 327 328 328 330 329 328 328 328 329 330 332 332 344 341 346 344 351 353 354 354 349 351 354 362 364 366 364 362 361 360 358 354 355 353 351 351 354 357 357 358 359 362
328 328 329 330 329 329 329 329 329 328 328 329 330 336 345 344 341 341 355 357 356 356 354 359 363 364 364 365 365 365 364 360 356 355 358 359 357 362 362 363 364 363 363 362
330 329 330 330 330 329 329 329 329 329 329 330 329 339 344 346 345 348 358 357 356 357 359 364 362 362 362 364 364 364 365 363 362 362 361 362 362 362 363 364 366 364 364 364
336 330 332 331 331 329 330 331 332 331 331 330 330 342 343 350 344 348 355 356 356 359 366 367 363 361 362 363 365 366 366 366 367 367 367 368 367 366 365 363 362 361 362 364
335 333 331 332 331 332 334 332 335 335 333 339 338 338 344 343 343 351 352 354 358 364 366 363 361 360 359 363 365 366 366 369 369 366 363 363 362 360 356 352 351 352 354 356
334 333 332 333 332 337 338 337 334 334 337 342 339 337 339 338 346 352 353 356 361 361 360 359 354 352 356 359 360 360 362 360 359 358 358 355 351 349 349 349 351 352 353 352
334 338 335 333 333 333 339 343 342 338 345 343 344 340 339 348 345 337 342 360 360 359 356 351 350 348 356 353 356 358 358 361 360 358 356 353 350 348 349 352 353 354 354 354
341 333 332 335 336 340 340 342 346 344 345 342 345 344 348 347 341 337 333 350 359 358 351 349 348 350 353 352 355 356 356 355 352 350 351 350 348 349 352 351 352 353 353 354
344 336 335 334 340 345 341 343 338 337 341 345 350 347 347 345 341 339 335 357 358 355 348 347 351 352 352 353 352 358 357 353 351 352 352 350 348 350 351 353 352 353 354 353
341 343 347 340 348 342 342 345 340 340 347 348 347 346 349 353 352 348 360 359 357 353 348 349 351 354 356 355 355 358 356 361 358 358 358 353 350 351 351 353 350 347 348 344
343 342 346 347 340 341 347 345 346 348 346 346 347 348 348 350 354 356 359 362 359 356 352 348 351 352 361 362 362 362 366 365 364 362 356 352 351 350 351 349 347 343 342 340
344 344 343 344 336 338 348 345 346 347 347 347 347 348 348 350 350 354 358 360 360 359 356 358 362 364 363 363 358 356 354 355 355 354 353 351 346 346 344 342 342 340 338 337
Wind_Speed
17 14 15 19 18 33 32 27 14 8 4 11 10 17 19 18 17 17 17 16 16 16 19 21 21 20 20 21 20 15 16 17 17 15 11 8 12 10 2 13 13 8 7 6
17 19 20 18 20 23 29 21 16 5 4 6 20 17 19 18 16 17 16 17 17 17 17 21 21 21 24 23 21 18 18 16 15 14 14 13 5 10 7 2 5 6 5 7
19 20 18 17 16 13 11 10 12 19 4 7 8 11 18 10 13 15 16 17 17 18 18 18 21 22 23 26 26 23 18 20 19 16 12 7 4 1 13 17 14 13 10 5
17 21 18 14 18 16 17 11 12 2 4 8 7 6 8 18 13 14 15 17 18 18 17 19 23 22 24 27 28 27 24 20 20 17 13 14 9 9 12 13 15 15 11 7
15 18 16 12 15 14 16 10 8 8 10 11 15 6 4 6 5 10 14 17 18 19 19 18 22 26 25 28 29 29 29 25 22 22 18 16 13 13 6 4 8 10 11 9
18 11 14 19 13 14 11 17 12 10 12 12 17 9 11 5 7 5 17 24 19 20 19 18 23 28 23 27 26 29 31 28 25 24 22 17 17 16 7 11 6 7 11 8
15 18 7 8 11 14 16 16 10 11 11 13 13 7 5 16 20 25 35 26 21 19 19 18 17 22 23 27 26 28 32 29 28 23 22 24 17 15 10 5 5 9 13 14
15 15 18 14 17 14 16 17 11 12 13 10 6 10 10 19 27 24 28 28 21 20 18 19 16 17 24 26 25 25 29 27 26 25 23 22 21 15 14 11 13 12 8 8
12 16 17 21 14 14 17 14 15 18 20 16 4 3 6 20 20 19 10 22 20 20 20 19 19 21 24 24 25 24 29 27 25 25 26 24 22 21 18 17 15 12 6 12
20 14 10 20 14 15 16 15 13 10 15 15 5 9 5 22 22 15 13 19 19 19 17 19 18 22 24 25 25 25 28 27 26 25 23 21 20 22 19 10 14 12 8 9
15 16 10 13 10 14 11 14 12 16 13 11 11 5 11 6 7 11 15 14 19 20 17 17 16 24 29 28 26 23 25 23 23 21 21 20 19 18 17 15 13 17 13 10
15 11 13 14 13 15 16 17 16 12 11 13 9 5 9 15 9 5 15 9 12 17 19 14 16 22 27 28 27 23 23 20 20 18 18 19 19 21 19 17 16 16 16 14
14 11 13 13 15 13 13 19 17 18 16 13 11 3 3 9 9 8 11 11 8 2 10 12 13 13 19 25 27 25 21 18 19 15 13 12 13 12 11 13 14 13 15 16
5 14 13 13 12 15 18 16 12 16 12 14 11 8 13 13 15 9 12 9 8 7 4 8 12 13 15 23 22 24 20 16 16 14 10 14 16 16 17 14 12 11 14 14
8 14 15 18 16 8 15 17 18 19 19 16 10 7 18 11 16 8 12 12 10 9 10 9 15 12 19 21 20 19 16 14 12 13 13 9 10 12 10 11 10 10 13 13
11 13 13 15 17 6 9 14 14 16 19 17 14 6 23 15 12 9 8 13 10 10 12 12 14 12 17 18 15 14 15 13 16 15 8 7 8 7 8 9 9 11 14 16
14 12 12 13 16 9 11 13 14 13 17 13 12 12 20 17 15 15 15 14 13 11 12 14 15 14 17 16 17 15 14 12 10 10 9 10 11 11 11 10 9 10 10 11
15 13 12 13 12 15 12 16 15 14 11 9 9 10 12 12 11 16 17 17 15 16 16 15 14 20 21 21 19 20 19 15 12 11 11 10 9 9 7 5 4 3 4 6
17 13 12 12 12 6 12 9 12 5 9 10 7 4 16 14 15 14 16 16 16 16 15 18 22 25 26 26 24 21 18 18 16 15 14 13 11 10 8 5 3 2 4 7
18 15 11 10 12 10 16 18 19 15 8 11 9 6 19 23 10 9 16 18 17 19 23 23 27 28 24 22 22 23 20 19 18 17 15 12 10 8 6 4 2 2 5 9
14 12 14 13 12 8 6 20 24 6 7 7 4 6 11 13 10 22 25 16 18 17 21 27 28 24 23 24 21 19 17 14 13 11 8 6 6 4 3 2 2 4 8 11
9 11 11 13 7 14 13 20 25 4 7 6 6 4 8 22 21 28 25 22 15 13 24 24 21 21 24 23 21 18 17 17 15 14 9 5 2 3 2 2 6 9 14 17
14 12 11 7 12 5 5 11 13 14 13 5 2 4 6 24 19 31 34 20 15 17 21 23 23 20 22 21 17 14 20 19 16 12 10 5 3 5 6 7 12 14 18 19
14 15 16 3 11 6 12 28 12 14 13 9 7 8 7 10 22 24 16 14 12 17 19 23 23 18 20 14 10 12 12 12 11 10 7 5 8 11 12 10 12 16 13 17
4 17 18 4 7 21 10 11 13 15 12 12 12 11 11 10 14 15 13 13 12 13 16 21 11 18 19 19 12 7 7 5 2 3 5 8 10 14 9 11 13 17 14 11
3 15 12 4 12 11 8 11 14 13 14 16 14 14 12 11 10 11 11 10 9 7 6 18 19 22 18 19 16 11 7 4 2 2 5 5 7 10 13 16 14 12 15 19
Wind_Direction
228 238 237 247 130 175 202 226 219 122 199 207 204 149 166 172 178 178 185 179 183 189 175 168 171 173 158 151 162 185 177 152 154 161 187 229 220 201 149 141 123 152 171 228
238 227 245 251 161 191 200 232 32 141 202 175 222 170 163 175 190 181 190 182 189 188 183 164 180 169 160 158 167 182 180 168 177 197 200 204 306 74 128 313 160 135 198 215
230 237 224 251 252 255 237 259 110 229 181 244 268 80 121 30 230 196 192 188 196 191 190 180 182 182 174 164 166 178 190 177 192 204 194 216 282 306 149 198 191 183 185 202
238 243 245 217 254 245 258 208 209 174 254 275 205 201 154 183 187 210 204 197 192 195 198 186 181 192 184 170 172 177 186 186 194 217 218 183 203 221 227 234 192 170 179 179
238 240 256 252 255 247 268 282 327 321 270 261 246 243 63 146 215 280 239 216 197 186 191 205 191 181 195 178 177 175 181 190 197 204 209 190 197 235 235 180 141 154 180 184
258 251 229 252 243 278 269 273 274 241 272 271 268 240 142 161 194 256 279 269 208 183 194 195 194 176 188 176 178 175 178 189 197 200 211 204 203 227 242 205 177 215 188 219
228 255 244 276 274 250 242 251 255 252 243 252 271 19 205 194 200 180 213 233 196 199 186 186 195 176 175 170 177 176 175 182 196 200 206 213 212 221 222 196 210 255 207 202
217 218 232 205 225 244 226 243 241 242 253 261 42 141 194 226 209 214 226 215 184 190 185 186 186 184 166 169 173 174 172 178 189 199 206 213 214 217 219 221 225 230 260 173
243 225 203 216 209 228 254 226 259 272 282 282 113 114 193 205 222 201 164 154 175 183 181 182 178 185 166 165 168 165 168 176 187 200 205 207 206 208 211 217 216 246 221 150
261 284 252 179 207 211 243 258 223 225 267 284 193 192 212 201 210 138 147 150 168 179 188 174 174 178 168 173 171 175 170 179 187 202 203 205 205 210 217 218 195 218 246 209
241 264 264 170 186 229 206 245 261 276 228 253 270 109 118 57 305 164 141 167 165 174 183 176 174 172 163 171 173 176 176 183 190 196 198 205 202 207 219 221 217 224 234 226
214 249 253 245 207 201 258 213 231 251 255 277 295 257 153 167 171 97 139 185 155 185 179 178 167 166 161 165 164 169 183 187 190 190 203 199 201 208 206 215 222 224 230 238
210 230 256 264 196 191 220 249 233 238 259 242 269 239 170 123 120 159 151 151 113 298 166 162 165 151 159 157 157 169 175 184 179 181 174 185 201 204 225 204 225 230 229 229
304 232 228 244 235 200 199 228 261 267 256 257 247 273 186 168 135 137 116 124 165 207 154 169 157 137 136 134 149 154 163 168 169 171 184 207 199 209 207 223 229 239 233 234
243 246 252 266 279 289 210 205 215 242 267 275 280 54 45 131 99 116 130 152 162 183 176 147 121 114 111 117 121 132 140 149 163 187 186 171 179 192 201 219 230 241 242 243
223 253 275 266 266 261 274 276 209 212 234 258 274 127 117 112 108 145 201 152 161 188 137 116 115 119 119 119 128 134 142 163 183 189 183 171 184 187 199 217 230 243 251 255
213 244 240 241 253 246 230 246 257 218 211 229 248 120 127 143 160 186 157 162 167 147 133 125 127 130 130 138 144 154 154 161 167 178 195 198 205 214 227 242 248 255 262 268
267 225 239 241 224 235 252 233 220 230 228 224 227 118 128 131 157 164 165 167 158 142 126 131 147 146 149 153 148 144 144 147 157 163 166 175 181 183 182 182 197 233 270 281
243 244 240 243 229 233 276 198 229 263 197 31 25 94 144 177 159 158 173 156 144 131 135 157 147 145 134 133 139 139 142 148 146 145 154 168 174 173 176 181 178 249 289 288
235 230 252 249 259 195 240 300 207 202 195 64 27 352 86 310 183 163 168 140 133 145 162 147 138 130 130 137 143 141 152 152 160 166 172 167 166 173 173 174 191 287 310 310
221 242 224 242 247 253 26 3 317 216 120 101 118 208 213 160 100 24 330 124 136 161 145 139 134 137 151 147 149 149 153 156 156 151 148 153 153 154 181 225 299 311 303 296
279 217 235 240 229 256 129 137 245 147 147 146 85 315 307 112 100 82 308 285 147 146 132 136 148 149 143 148 152 158 159 159 158 145 153 160 169 270 191 302 308 303 296 293
264 248 235 271 215 163 52 123 139 145 137 151 144 158 236 130 148 167 193 198 146 160 147 153 141 148 149 156 171 152 141 148 147 153 163 178 232 267 283 289 297 293 289 291
291 348 318 139 15 317 114 208 153 135 138 148 144 174 151 144 152 172 150 137 152 159 160 155 149 151 144 143 136 118 146 151 164 173 184 219 245 260 266 271 285 293 314 331
10 330 299 87 39 337 127 136 150 126 133 149 135 147 127 135 143 153 144 141 154 164 176 142 130 167 144 129 128 122 111 111 194 205 225 250 263 281 265 267 305 313 320 347
38 280 279 294 157 232 202 155 138 152 151 135 149 135 137 124 138 116 117 124 118 129 162 144 139 108 108 103 99 97 101 118 209 250 249 293 312 329 326 311 314 331 349 341